THOR ABLESTAR R/B, 893

Orbit data source: Space-Track

THOR ABLESTAR R/B, 893 is space debris in LEO originally from a launch on Tue, 06 Oct 1964 UTC launched from the Air Force Western Test Range (AFWTR). Debris objects in space refer to the collection of defunct objects orbiting the Earth. Examples of debris include non-operational satellites, rocket bodies, and fragments generated from explosions, collisions, or faulty payload assembly.

Loading next visibility...
Identifier
893, 1964-063A
Orbit
LEO
Country
Flag of USUS
Related business
Manufacturer
Aerojet
Mission
Spacecraft
Bus & Motor
ABLESTAR, Unknown motor
Mass
~600 kg wet, 600 kg dry
Launch date (UTC)
1964-10-06 (62 years ago)
Launch vehicle
Unknown
Launch site
Air Force Western Test Range (AFWTR)
Object type
Payload
Rocket body
Debris
Shape & HBR
Unknown
Radar Cross Section
Large (>1 m²)

Expand to show TLE details & history
Last TLE update: 12 hours ago

TLE from 12 hours ago
0 THOR ABLESTAR R/B
1   893U 64063A   26192.14410367  .00000042  00000-0  47309-4 0  9998
2   893  90.2308  75.7582 0026571 149.4086   5.0791 13.56322401 55224
Epoch: 2026-07-11T03:27Z
TLE epoch observation values (Epoch: 2026-07-11T03:27:30.557Z)
Latitude
25.51355°
Longitude
-85.07108°
Altitude
1,032.582 km
Speed
7.347 km/s
True Right ascension
17h 03m 28s
True Declination
25° 23' 06"
Sunlit
Object was in full shadow at epoch
Visualization orbit readout
Latitude
Unknown
Longitude
Unknown
Altitude
Unknown
Speed
Unknown
Apparent Right ascension
Unknown
Apparent Declination
Unknown
Sunlit
N/A
Visualization observer readout
Local Sidereal Time
03:49:08
Azimuth
Unknown
Elevation
Unknown
Doppler factor
Unknown
Orbital elements
Apogee altitude
1,065.855 km
Perigee altitude
1,026.401 km
Semi-major axis
7,424.265 km
Eccentricity
0.00266
Inclination
90.2308°
RAAN
75.7582°
Arg. of periapsis
149.4086°
True anomaly
5.10615°
Mean anomaly
5.0791°
Eccentric anomaly
5.09261°
Mean motion
3.39284 °/min
Orbital period
106.11 mins
BSTAR
0.000047309
Loading maneuver chart data...
Computing Atmospheric mass density...
Loading historical data...
Loading historical data...
Loading historical data...
Loading historical data...
Loading historical data...
Loading historical data...
Loading historical data...
Other satellites on launch #63 in the year 1964 (1964-10-06 UTC)

Documentation

Showing up to 5 results
|